This is the latest recevied weather packets stored in our database for station/object WT9M-8. If no packets are shown the sender has not sent any weather packets the latest 10 day(s).
| Time | Temp. | Humidity | Pressure | Rain* | Wind** | Luminosity | Snow |
|---|---|---|---|---|---|---|---|
| 1777955450 | 10.56° C | 50% | 1004.2 hPa | 0 mm | - | 0 W/m² | - |
| 1777953018 | 11.67° C | 49% | 1003.4 hPa | 0 mm | - | 0 W/m² | - |
| 1777949428 | 12.78° C | 46% | 1002.3 hPa | 0 mm | - | 0 W/m² | - |
| 1777948824 | 12.78° C | 46% | 1002 hPa | 0 mm | - | 0 W/m² | - |
| 1777948241 | 13.33° C | 45% | 1001.8 hPa | 0 mm | - | 0 W/m² | - |
| 1777945868 | 13.33° C | 43% | 1000.7 hPa | 0 mm | - | 0 W/m² | - |
| 1777944038 | 14.44° C | 42% | 1000 hPa | 0 mm | - | 0 W/m² | - |
| 1777940417 | 16.11° C | 37% | 1000.1 hPa | 0 mm | - | 19 W/m² | - |
| 1777927224 | 25° C | 36% | 997.3 hPa | 0 mm | - | 232 W/m² | - |
| 1777926017 | 26.11° C | 37% | 997 hPa | 0 mm | - | 374 W/m² | - |
| 1777924830 | 27.22° C | 37% | 996.8 hPa | 0 mm | - | 422 W/m² | - |
| 1777923020 | 27.78° C | 37% | 996.7 hPa | 0 mm | - | 569 W/m² | - |
| 1777918817 | 26.67° C | 36% | 996.5 hPa | 0 mm | - | 617 W/m² | - |
| 1777914031 | 26.11° C | 38% | 997.2 hPa | 0 mm | - | 566 W/m² | - |
| 1777912219 | 25.56° C | 38% | 997.2 hPa | 0 mm | - | 512 W/m² | - |
| 1777906822 | 22.22° C | 42% | 997.5 hPa | 0 mm | - | 372 W/m² | - |
| 1777905029 | 20° C | 46% | 997.9 hPa | 0 mm | - | 312 W/m² | - |
| 1777903233 | 17.22° C | 51% | 998.4 hPa | 0 mm | - | 228 W/m² | - |
| 1777902628 | 16.67° C | 53% | 998.6 hPa | 0 mm | - | 183 W/m² | - |
| 1777897851 | 7.22° C | 89% | 999.4 hPa | 0 mm | - | 42 W/m² | - |
| 1777896036 | 2.22° C | 90% | 999.6 hPa | 0 mm | - | 21 W/m² | - |
| 1777890635 | 1.11° C | 88% | 1000.3 hPa | 0 mm | - | 0 W/m² | - |
| 1777887633 | 1.11° C | 86% | 1001.2 hPa | 0 mm | - | 0 W/m² | - |
| 1777876229 | 2.78° C | 82% | 1003.2 hPa | 0 mm | - | 0 W/m² | - |
| 1777875021 | 2.78° C | 82% | 1003.4 hPa | 0 mm | - | 0 W/m² | - |
* Rain latest hour (hover to see other rain measurements)
** Current wind speed in m/s (hover to see current wind gust speed)